FW9036 Weather Reports


time (UTC)temp
C
wind
direction
speed
KPH
gust
KPH
rain 1hr
cm
rain 24hr
cm
rain mn
cm
humidity
%
barometer
mb
20260507205152 29 74 0.0 8.0 0.00 0.00 0.00 58 1012.9
20260507204648 28 349 6.4 9.7 0.00 0.00 0.00 58 1013.2
20260507204146 28 90 1.6 4.8 0.00 0.00 0.00 60 1013.4
20260507203644 28 357 4.8 9.7 0.00 0.00 0.00 60 1013.4
20260507203141 28 201 4.8 12.9 0.00 0.00 0.00 61 1013.9
20260507202636 28 186 0.0 8.0 0.00 0.00 0.00 62 1013.9
20260507202133 28 115 3.2 4.8 0.00 0.00 0.00 62 1014.0
20260507201628 28 63 1.6 4.8 0.00 0.00 0.00 62 1014.1
20260507201125 28 164 3.2 11.3 0.00 0.00 0.00 62 1014.0
20260507200621 29 337 4.8 8.0 0.00 0.00 0.00 62 1014.2
20260507200117 28 12 3.2 6.4 0.00 0.00 0.00 63 1014.2
20260507195614 28 157 4.8 4.8 0.00 0.00 0.00 63 1014.4
20260507195111 28 353 4.8 8.0 0.00 0.00 0.00 63 1014.4
20260507194608 29 48 3.2 16.1 0.00 0.00 0.00 62 1014.5
20260507194103 29 147 4.8 6.4 0.00 0.00 0.00 62 1014.4
20260507193601 29 188 4.8 8.0 0.00 0.00 0.00 62 1014.1
20260507193058 29 163 0.0 8.0 0.00 0.00 0.00 61 1014.6
20260507192554 28 127 4.8 8.0 0.00 0.00 0.00 62 1014.3
20260507192051 29 199 4.8 11.3 0.00 0.00 0.00 62 1014.7
20260507191546 29 227 4.8 11.3 0.00 0.00 0.00 62 1014.6
20260507191044 29 313 4.8 11.3 0.00 0.00 0.00 62 1014.8
20260507190541 29 0 3.2 9.7 0.00 0.00 0.00 63 1014.8
20260507190039 29 346 8.0 11.3 0.00 0.00 0.00 63 1015.2
20260507185537 29 347 4.8 14.5 0.00 0.00 0.00 63 1015.5
20260507185033 29 341 9.7 9.7 0.00 0.00 0.00 63 1015.6
20260507184532 28 333 6.4 9.7 0.00 0.00 0.00 66 1015.7
20260507184030 28 278 4.8 9.7 0.00 0.00 0.00 66 1015.9
20260507183525 28 5 4.8 14.5 0.00 0.00 0.00 64 1015.9
20260507183023 29 0 6.4 9.7 0.00 0.00 0.00 63 1015.9
20260507182519 28 351 6.4 22.5 0.00 0.00 0.00 64 1016.0
20260507182015 28 10 4.8 9.7 0.00 0.00 0.00 65 1016.1
20260507181512 29 12 19.3 19.3 0.00 0.00 0.00 64 1016.2
20260507181008 29 283 3.2 11.3 0.00 0.00 0.00 65 1016.0
20260507180504 28 33 8.0 14.5 0.00 0.00 0.00 65 1016.2
20260507180001 28 16 4.8 12.9 0.00 0.00 0.00 65 1016.3
20260507175457 28 5 3.2 8.0 0.00 0.00 0.00 65 1016.3
20260507174955 27 345 6.4 12.9 0.00 0.00 0.00 66 1016.2
20260507174452 28 19 8.0 8.0 0.00 0.00 0.00 66 1016.6
20260507173950 27 345 6.4 8.0 0.00 0.00 0.00 66 1016.5
20260507173447 27 328 8.0 11.3 0.00 0.00 0.00 66 1016.9
20260507172943 27 319 3.2 9.7 0.00 0.00 0.00 67 1016.7
20260507172440 28 4 9.7 14.5 0.00 0.00 0.00 65 1016.7
20260507171937 28 19 4.8 12.9 0.00 0.00 0.00 64 1016.8
20260507171432 29 4 3.2 8.0 0.00 0.00 0.00 61 1016.4
20260507170930 29 0 1.6 11.3 0.00 0.00 0.00 59 1016.6
20260507170426 30 334 4.8 11.3 0.00 0.00 0.00 57 1016.5
20260507165923 30 36 4.8 8.0 0.00 0.00 0.00 54 1016.5
20260507165419 29 10 8.0 14.5 0.00 0.00 0.00 55 1016.7
20260507164914 30 326 9.7 14.5 0.00 0.00 0.00 54 1016.7
20260507164412 30 6 4.8 12.9 0.00 0.00 0.00 53 1016.8
20260507163909 30 36 8.0 9.7 0.00 0.00 0.00 54 1016.7
20260507163406 29 7 8.0 11.3 0.00 0.00 0.00 54 1016.5
20260507162903 29 0 4.8 9.7 0.00 0.00 0.00 54 1016.7
20260507162358 29 4 9.7 12.9 0.00 0.00 0.00 54 1017.1
20260507161856 29 340 4.8 12.9 0.00 0.00 0.00 54 1016.7
20260507161352 29 356 3.2 17.7 0.00 0.00 0.00 55 1017.1
20260507160849 29 56 3.2 16.1 0.00 0.00 0.00 55 1017.1
20260507160344 30 9 11.3 16.1 0.00 0.00 0.00 55 1017.0
20260507155841 29 63 0.0 14.5 0.00 0.00 0.00 56 1016.9
20260507155336 29 287 11.3 11.3 0.00 0.00 0.00 58 1016.9
20260507154833 28 358 6.4 8.0 0.00 0.00 0.00 59 1017.2
20260507154331 28 5 3.2 12.9 0.00 0.00 0.00 60 1017.3
20260507153828 28 7 0.0 11.3 0.00 0.00 0.00 63 1017.3
20260507153324 27 308 9.7 11.3 0.00 0.00 0.00 64 1017.6
20260507152821 28 50 4.8 12.9 0.00 0.00 0.00 64 1017.4
20260507152317 27 356 3.2 9.7 0.00 0.00 0.00 65 1017.2
20260507151813 27 258 4.8 8.0 0.00 0.00 0.00 67 1017.2
20260507151309 27 174 4.8 4.8 0.00 0.00 0.00 68 1016.6
20260507150806 27 174 0.0 3.2 0.00 0.00 0.00 68 1016.8
20260507150303 27 180 4.8 4.8 0.00 0.00 0.00 68 1016.7
20260507145759 27 4 3.2 4.8 0.00 0.00 0.00 68 1016.6
20260507145256 27 0 1.6 4.8 0.00 0.00 0.00 69 1016.5
20260507144753 26 40 0.0 8.0 0.00 0.00 0.00 70 1016.3
20260507144250 26 144 4.8 4.8 0.00 0.00 0.00 70 1016.2
20260507143746 26 180 0.0 3.2 0.00 0.00 0.00 72 1016.3
20260507143244 26 171 0.0 4.8 0.00 0.00 0.00 72 1016.1
20260507142740 26 75 0.0 4.8 0.00 0.00 0.00 72 1016.0
20260507142237 26 90 0.0 4.8 0.00 0.00 0.00 73 1016.0
20260507141733 25 170 0.0 6.4 0.00 0.00 0.00 73 1016.1
20260507141230 25 90 0.0 4.8 0.00 0.00 0.00 73 1016.3
20260507140726 25 118 6.4 6.4 0.00 0.00 0.00 74 1016.4
20260507140224 25 183 4.8 4.8 0.00 0.00 0.00 75 1016.5
20260507135721 25 176 0.0 6.4 0.00 0.00 0.00 75 1016.3
20260507135218 25 200 4.8 4.8 0.00 0.00 0.00 76 1016.3
20260507134714 25 0 3.2 6.4 0.00 0.00 0.00 76 1016.3
20260507134211 25 286 1.6 4.8 0.00 0.00 0.00 77 1016.4
20260507133707 25 172 0.0 4.8 0.00 0.00 0.00 77 1016.4
20260507133204 24 23 0.0 6.4 0.00 0.00 0.00 78 1016.6
20260507132701 24 29 0.0 3.2 0.00 0.00 0.00 78 1016.5
20260507132157 23 135 4.8 4.8 0.00 0.00 0.00 79 1016.5
20260507131654 23 281 0.0 3.2 0.00 0.00 0.00 79 1016.4
20260507131152 23 294 0.0 3.2 0.00 0.00 0.00 80 1016.5
20260507130648 23 106 0.0 1.6 0.00 0.00 0.00 80 1016.3
20260507130146 23 81 0.0 3.2 0.00 0.00 0.00 80 1016.5
20260507125644 23 180 0.0 3.2 0.00 0.00 0.00 80 1016.5
20260507125142 23 257 1.6 3.2 0.00 0.00 0.00 80 1016.8
20260507124638 23 75 0.0 1.6 0.00 0.00 0.00 81 1016.7
20260507124136 22 292 3.2 3.2 0.00 0.00 0.00 81 1016.7
20260507123634 22 306 1.6 8.0 0.00 0.00 0.00 80 1016.8
20260507123131 23 82 1.6 4.8 0.00 0.00 0.00 81 1016.9
20260507122626 23 283 0.0 4.8 0.00 0.00 0.00 81 1016.7
20260507122122 22 325 0.0 4.8 0.00 0.00 0.00 81 1016.7
20260507121618 22 279 0.0 4.8 0.00 0.00 0.00 82 1016.6
20260507121114 23 84 0.0 4.8 0.00 0.00 0.00 82 1016.6
20260507120610 23 345 1.6 3.2 0.00 0.00 0.00 83 1016.5
20260507120107 22 285 0.0 3.2 0.00 0.00 0.00 83 1016.6
20260507115603 22 289 1.6 3.2 0.00 0.00 0.00 83 1016.2
20260507115059 22 255 0.0 0.0 0.00 0.00 0.00 83 1016.0
20260507114555 22 254 0.0 3.2 0.00 0.00 0.00 83 1016.1
20260507114053 22 286 0.0 6.4 0.00 0.00 0.00 83 1016.1
20260507113549 22 243 0.0 0.0 0.00 0.00 0.00 84 1015.9
20260507113047 22 234 0.0 4.8 0.00 0.00 0.00 83 1015.7
20260507112545 22 194 0.0 3.2 0.00 0.00 0.00 83 1015.9
20260507112041 22 110 0.0 4.8 0.00 0.00 0.00 83 1015.9
20260507111538 22 263 0.0 3.2 0.00 0.00 0.00 83 1016.0
20260507111035 22 294 0.0 3.2 0.00 0.00 0.00 83 1015.9
20260507110531 22 106 0.0 6.4 0.00 0.00 0.00 83 1016.1
20260507110028 22 180 0.0 1.6 0.00 0.00 0.00 83 1015.6
20260507105525 22 180 0.0 4.8 0.00 0.00 0.00 84 1016.0
20260507105020 22 175 3.2 3.2 0.00 0.00 0.00 84 1015.9
20260507104518 21 180 0.0 3.2 0.00 0.00 0.00 84 1015.9
20260507104015 21 173 0.0 0.0 0.00 0.00 0.00 84 1015.7
20260507103511 21 180 0.0 0.0 0.00 0.00 0.00 84 1015.8
20260507103007 21 180 0.0 0.0 0.00 0.00 0.00 84 1015.8
20260507102504 21 180 0.0 0.0 0.00 0.00 0.00 84 1016.0
20260507102000 21 180 0.0 1.6 0.00 0.00 0.00 84 1015.9
20260507101455 22 180 0.0 0.0 0.00 0.00 0.00 84 1015.9
20260507100952 22 180 0.0 0.0 0.00 0.00 0.00 84 1016.0
20260507100450 22 180 0.0 0.0 0.00 0.00 0.00 84 1015.8
20260507095948 22 172 0.0 1.6 0.00 0.00 0.00 84 1015.8
20260507095445 22 255 0.0 3.2 0.00 0.00 0.00 84 1015.8
20260507094942 22 246 0.0 3.2 0.00 0.00 0.00 83 1015.9
20260507094438 22 285 0.0 1.6 0.00 0.00 0.00 83 1015.8
20260507093935 22 270 0.0 0.0 0.00 0.00 0.00 83 1015.7
20260507093433 22 270 0.0 1.6 0.00 0.00 0.00 83 1015.7
20260507092931 22 194 1.6 3.2 0.00 0.00 0.00 83 1015.7
20260507092427 22 99 0.0 0.0 0.00 0.00 0.00 82 1015.7
20260507091924 22 180 0.0 0.0 0.00 0.00 0.00 82 1015.4
20260507091420 22 172 0.0 3.2 0.00 0.00 0.00 82 1015.7
20260507090916 22 215 0.0 0.0 0.00 0.00 0.00 81 1015.4
20260507090412 22 180 0.0 1.6 0.00 0.00 0.00 81 1015.4
20260507085909 22 198 0.0 4.8 0.00 0.00 0.00 81 1015.3
20260507085406 22 180 0.0 3.2 0.00 0.00 0.00 81 1015.3
20260507084903 22 98 0.0 6.4 0.00 0.00 0.00 80 1014.9
20260507084400 22 195 0.0 4.8 0.00 0.00 0.00 80 1014.9
20260507083857 22 81 0.0 3.2 0.00 0.00 0.00 80 1014.8
20260507083353 22 180 0.0 4.8 0.00 0.00 0.00 80 1014.6
20260507082850 22 166 0.0 4.8 0.00 0.00 0.00 79 1014.5
20260507082345 22 109 1.6 3.2 0.00 0.00 0.00 80 1014.6
20260507081843 22 166 0.0 3.2 0.00 0.00 0.00 80 1014.6
20260507081339 22 98 0.0 3.2 0.00 0.00 0.00 79 1014.6
20260507080836 22 240 0.0 3.2 0.00 0.00 0.00 79 1014.6
20260507080332 22 188 0.0 4.8 0.00 0.00 0.00 79 1014.5
20260507075828 22 111 0.0 3.2 0.00 0.00 0.00 79 1014.7
20260507075324 22 107 3.2 3.2 0.00 0.00 0.00 78 1014.7
20260507074820 22 109 1.6 4.8 0.00 0.00 0.00 78 1014.6
20260507074318 22 120 3.2 6.4 0.00 0.00 0.00 78 1014.8
20260507073815 22 120 1.6 3.2 0.00 0.00 0.00 78 1014.8
20260507073311 22 157 0.0 1.6 0.00 0.00 0.00 78 1015.0
20260507072809 22 90 0.0 3.2 0.00 0.00 0.00 77 1015.0
20260507072308 22 114 0.0 3.2 0.00 0.00 0.00 77 1015.0
20260507071803 22 103 0.0 4.8 0.00 0.00 0.00 77 1015.0
20260507071300 22 126 1.6 3.2 0.00 0.00 0.00 77 1015.3
20260507070756 22 90 0.0 0.0 0.00 0.00 0.00 77 1015.3
20260507070254 23 90 0.0 0.0 0.00 0.00 0.00 76 1015.4
20260507065750 23 166 0.0 3.2 0.00 0.00 0.00 76 1015.4
20260507065247 23 123 0.0 3.2 0.00 0.00 0.00 76 1015.4
20260507064744 23 170 0.0 4.8 0.00 0.00 0.00 76 1015.6
20260507064243 23 95 0.0 3.2 0.00 0.00 0.00 75 1015.5
20260507063740 23 103 1.6 3.2 0.00 0.00 0.00 75 1015.5
20260507063237 23 151 0.0 3.2 0.00 0.00 0.00 75 1015.8
20260507062734 23 105 1.6 4.8 0.00 0.00 0.00 75 1015.9
20260507062231 23 145 1.6 3.2 0.00 0.00 0.00 74 1016.0
20260507061730 23 139 0.0 4.8 0.00 0.00 0.00 74 1016.0
20260507061227 23 90 0.0 1.6 0.00 0.00 0.00 74 1016.2
20260507060725 23 82 0.0 1.6 0.00 0.00 0.00 74 1016.2
20260507060221 23 66 0.0 1.6 0.00 0.00 0.00 74 1016.4
20260507055717 23 99 0.0 3.2 0.00 0.00 0.00 74 1016.5
20260507055213 23 107 0.0 3.2 0.00 0.00 0.00 74 1016.3
20260507054709 23 165 0.0 3.2 0.00 0.00 0.00 74 1016.6
20260507054206 23 117 0.0 0.0 0.00 0.00 0.00 74 1016.6
20260507053704 23 84 0.0 3.2 0.00 0.00 0.00 74 1016.7
20260507053202 23 90 0.0 1.6 0.00 0.00 0.00 73 1016.7
20260507052700 23 157 0.0 4.8 0.00 0.00 0.00 73 1016.8
20260507052156 23 107 3.2 4.8 0.00 0.00 0.00 73 1016.8
20260507051654 23 180 0.0 0.0 0.00 0.00 0.00 73 1016.6
20260507051150 23 246 0.0 1.6 0.00 0.00 0.00 73 1016.9
20260507050647 23 145 0.0 3.2 0.00 0.00 0.00 73 1016.8
20260507050144 23 99 0.0 0.0 0.00 0.00 0.00 73 1016.9
20260507045641 23 123 3.2 3.2 0.00 0.00 0.00 73 1016.8
20260507045137 23 132 3.2 3.2 0.00 0.00 0.00 72 1016.5
20260507044634 24 90 0.0 3.2 0.00 0.00 0.00 72 1016.4
20260507044131 23 180 0.0 6.4 0.00 0.00 0.00 72 1016.8
20260507043627 24 139 3.2 6.4 0.00 0.00 0.00 72 1016.4
20260507043124 24 117 0.0 4.8 0.00 0.00 0.00 72 1016.9
20260507042620 24 109 0.0 3.2 0.00 0.00 0.00 72 1016.9
20260507042115 24 106 1.6 3.2 0.00 0.00 0.00 72 1017.0
20260507041613 24 148 3.2 8.0 0.00 0.00 0.00 71 1017.0
20260507041110 24 147 3.2 4.8 0.00 0.00 0.00 71 1017.0
20260507040607 23 123 0.0 3.2 0.00 0.00 0.00 71 1017.0
20260507035559 23 111 0.0 3.2 0.00 0.00 0.00 71 1017.0
20260507035055 24 96 0.0 4.8 0.00 0.00 0.00 71 1017.2
20260507034552 24 126 0.0 3.2 0.00 0.00 0.00 71 1017.1
20260507034050 24 135 3.2 3.2 0.00 0.00 0.00 70 1017.1
20260507033548 24 107 3.2 3.2 0.00 0.00 0.00 70 1017.1
20260507033044 24 151 1.6 3.2 0.00 0.00 0.00 71 1017.0
20260507032541 24 157 0.0 3.2 0.00 0.00 0.00 70 1016.8
20260507032038 24 84 0.0 3.2 0.00 0.00 0.00 70 1017.1
20260507031534 24 114 0.0 1.6 0.00 0.00 0.00 70 1017.0
20260507031032 24 151 1.6 3.2 0.00 0.00 0.00 69 1017.0
20260507030528 25 115 0.0 3.2 0.00 0.00 0.00 69 1017.3
20260507030026 25 109 0.0 4.8 0.00 0.00 0.00 69 1016.8
20260507025523 25 120 0.0 3.2 0.00 0.00 0.00 68 1016.9
20260507025020 25 112 3.2 4.8 0.00 0.00 0.00 68 1016.9
20260507024518 25 180 0.0 6.4 0.00 0.00 0.00 68 1016.8
20260507024014 25 101 4.8 4.8 0.00 0.00 0.00 68 1017.0
20260507023510 25 121 0.0 3.2 0.00 0.00 0.00 68 1017.2
20260507023008 25 107 3.2 6.4 0.00 0.00 0.00 68 1017.0
20260507022505 25 111 1.6 4.8 0.00 0.00 0.00 68 1016.8
20260507022000 25 160 0.0 8.0 0.00 0.00 0.00 68 1016.7
20260507021456 25 102 0.0 3.2 0.00 0.00 0.00 68 1016.9
20260507020953 25 239 0.0 4.8 0.00 0.00 0.00 68 1016.9
20260507020450 25 97 1.6 6.4 0.00 0.00 0.00 69 1016.8
20260507015947 25 132 3.2 4.8 0.00 0.00 0.00 69 1017.0
20260507015445 25 90 1.6 4.8 0.00 0.00 0.00 69 1016.9
20260507014942 25 106 3.2 4.8 0.00 0.00 0.00 69 1016.9
20260507014439 25 111 0.0 3.2 0.00 0.00 0.00 69 1016.6
20260507013935 25 140 3.2 4.8 0.00 0.00 0.00 69 1016.8
20260507013432 25 131 3.2 6.4 0.00 0.00 0.00 69 1016.7
20260507012929 25 99 0.0 3.2 0.00 0.00 0.00 69 1016.7
20260507012426 25 263 4.8 6.4 0.00 0.00 0.00 69 1016.6
20260507011922 25 90 0.0 1.6 0.00 0.00 0.00 70 1016.7
20260507011420 25 128 0.0 6.4 0.00 0.00 0.00 69 1016.7
20260507010919 25 289 0.0 4.8 0.00 0.00 0.00 69 1016.6
20260507010415 25 254 1.6 3.2 0.00 0.00 0.00 69 1016.6
20260507005912 25 261 0.0 3.2 0.00 0.00 0.00 69 1016.6
20260507005409 26 114 3.2 4.8 0.00 0.00 0.00 68 1016.4
20260507004906 26 110 3.2 9.7 0.00 0.00 0.00 67 1016.2
20260507004403 26 81 3.2 8.0 0.00 0.00 0.00 67 1016.6
20260507003900 26 116 6.4 6.4 0.00 0.00 0.00 67 1016.4
20260507003355 26 129 3.2 8.0 0.00 0.00 0.00 67 1016.3
20260507002851 26 124 4.8 9.7 0.00 0.00 0.00 66 1016.1
20260507002347 26 113 0.0 6.4 0.00 0.00 0.00 66 1016.2
20260507001844 26 160 1.6 8.0 0.00 0.00 0.00 66 1015.9
20260507001341 26 139 3.2 8.0 0.00 0.00 0.00 66 1015.9
20260507000837 26 111 4.8 6.4 0.00 0.00 0.00 66 1015.8
20260507000335 27 135 0.0 3.2 0.00 0.00 0.00 66 1015.5
20260506235830 27 142 0.0 6.4 0.00 0.00 0.00 66 1015.6
20260506235326 27 150 3.2 4.8 0.00 0.00 0.00 65 1015.8
20260506234822 27 111 4.8 6.4 0.00 0.00 0.00 64 1015.4
20260506234321 27 78 0.0 3.2 0.00 0.00 0.00 63 1015.4
20260506233818 27 132 3.2 6.4 0.00 0.00 0.00 63 1015.4
20260506233313 28 84 0.0 8.0 0.00 0.00 0.00 63 1015.6
20260506232811 28 165 3.2 6.4 0.00 0.00 0.00 63 1015.6
20260506232306 28 77 8.0 11.3 0.00 0.00 0.00 63 1015.3
20260506231803 28 57 3.2 16.1 0.00 0.00 0.00 63 1015.5
20260506231301 28 135 0.0 9.7 0.00 0.00 0.00 63 1015.0
20260506230758 28 149 4.8 11.3 0.00 0.00 0.00 63 1015.1
20260506230255 30 141 4.8 11.3 0.00 0.00 0.00 62 1015.3
20260506225751 29 144 4.8 8.0 0.00 0.00 0.00 63 1015.2
20260506225248 29 114 4.8 9.7 0.00 0.00 0.00 64 1015.3
20260506224745 29 117 0.0 9.7 0.00 0.00 0.00 64 1015.3
20260506224243 30 117 8.0 8.0 0.00 0.00 0.00 62 1015.2
20260506223738 30 143 8.0 9.7 0.00 0.00 0.00 61 1015.2
20260506223234 31 90 1.6 8.0 0.00 0.00 0.00 59 1015.5
20260506222731 31 110 16.1 16.1 0.00 0.00 0.00 60 1015.4
20260506222226 30 137 9.7 11.3 0.00 0.00 0.00 62 1015.4
20260506221725 30 129 3.2 8.0 0.00 0.00 0.00 61 1015.5
20260506221223 31 167 4.8 12.9 0.00 0.00 0.00 59 1015.2
20260506220720 31 118 6.4 16.1 0.00 0.00 0.00 59 1015.2
20260506220214 31 163 6.4 14.5 0.00 0.00 0.00 59 1015.2
20260506215711 32 124 8.0 14.5 0.00 0.00 0.00 58 1015.1
20260506215207 32 109 3.2 9.7 0.00 0.00 0.00 58 1015.1
20260506214703 31 135 3.2 14.5 0.00 0.00 0.00 59 1015.3
20260506214201 32 127 8.0 14.5 0.00 0.00 0.00 57 1015.3
20260506213659 32 118 4.8 11.3 0.00 0.00 0.00 57 1015.3
20260506213156 33 149 4.8 14.5 0.00 0.00 0.00 55 1015.1
20260506212653 34 138 4.8 8.0 0.00 0.00 0.00 43 1015.3
20260506212148 34 155 4.8 11.3 0.00 0.00 0.00 43 1015.2
20260506211644 33 121 4.8 8.0 0.00 0.00 0.00 44 1015.3
20260506211141 34 132 4.8 6.4 0.00 0.00 0.00 43 1015.4
20260506210638 33 138 4.8 11.3 0.00 0.00 0.00 44 1015.3
20260506210134 33 99 6.4 8.0 0.00 0.00 0.00 44 1015.6
20260506205632 33 199 0.0 8.0 0.00 0.00 0.00 43 1015.8